Regional Weather Roundup
Issued by NWS Green Bay, WI

Home | Current Version | Previous Version | Graphics & Text | Print | Product List | Glossary Off
Versions: 1 2 3 4 5 6 7 8 9 10 11 12 13 14 15 16 17 18 19 20 21 22 23 24 25 26 27 28 29 30 31 32 33 34 35 36 37 38 39 40 41 42 43 44 45 46 47 48 49 50

000
ASUS43 KGRB 311300
RWRGRB

NORTH-CENTRAL AND NORTHEAST WISCONSIN REGIONAL WEATHER ROUNDUP
NATIONAL WEATHER SERVICE GREEN BAY WI
800 AM CDT WED AUG 31 2016

WIZ005-009-010>012-018-019-311400-
NORTH CENTRAL WISCONSIN

CITY           SKY/WX    TMP DP  RH WIND       PRES   REMARKS
IRONWOOD       SUNNY     55  54  96 W5        30.20R
MANITOWISH WTR NOT AVBL
ARBOR VITAE    NOT AVBL
EAGLE RIVER    NOT AVBL
LAND O LAKES   NOT AVBL
RHINELANDER    SUNNY     58  57  97 N3        30.18R
PHILLIPS       SUNNY     52  52 100 CALM      30.19R
ANTIGO         NOT AVBL
TOMAHAWK       NOT AVBL
MERRILL        SUNNY     50  50 100 CALM      30.18S
$$

WIZ013-073-311400-
NORTHEAST WISCONSIN

CITY           SKY/WX    TMP DP  RH WIND       PRES   REMARKS
IRON MOUNTAIN  SUNNY     56  52  86 NW5       30.14R
MARINETTE      MOSUNNY  N/A N/A N/A MISG        N/A
$$

WIZ017-030-035>037-045-311400-
CENTRAL WISCONSIN

CITY           SKY/WX    TMP DP  RH WIND       PRES   REMARKS
MEDFORD        NOT AVBL
WAUSAU         SUNNY     55  51  86 NW6       30.15S
MOSINEE        SUNNY     54  54 100 NW3       30.17S
MARSHFIELD     SUNNY     59  54  83 CALM      30.16S
WISC RAPIDS    MOSUNNY   59  54  83 N5        30.17S
STEVENS POINT  NOT AVBL
WAUPACA        NOT AVBL
SHAWANO        NOT AVBL
CLINTONVILLE   SUNNY     57  52  82 NW3       30.14S
WAUTOMA        SUNNY     59  54  83 N5        30.16R
$$

WIZ038-039-048-051-311400-
FOX VALLEY

CITY           SKY/WX    TMP DP  RH WIND       PRES   REMARKS
NWS GREEN BAY  SUNNY     60  57  89 CALM      30.13R
APPLETON       MOSUNNY   57  55  94 NW7       30.12S
OSHKOSH        MOSUNNY   63  56  78 N6        30.13R
FOND DU LAC    SUNNY     64  59  83 N6        30.13R
$$

WIZ022-050-052-311400-
EAST CENTRAL WISCONSIN

CITY           SKY/WX    TMP DP  RH WIND       PRES   REMARKS
EPHRAIM        NOT AVBL
WASHINGTON ISL NOT AVBL
STURGEON BAY   SUNNY     64  58  80 N7        30.12S
MANITOWOC      NOT AVBL
SHEBOYGAN      SUNNY     63  56  78 N7        30.11S
$$

LMZ563-521-522-541>543-311400-
LAKESHORE

STATION/POSITION TIME  TEMP    WIND        PRES    VSBY  WAVE
                       AIR SEA DIR/SP/G                  HT/PER
                 (UTC) (F)     (DEG/KT/KT) (MB)    (MI)  (FT/S)
SHEBOYGAN LKSHOR 1200   62     340/ 13/ 14 1018.8R
KEWAUNEE LKSHORE 1200   60     310/  3/  5 1018.9R
N MID LAKE BUOY  1150   66 71  340/ 12/ 16 1018.3R         2/ 4
CHAMBERS ISLAND  1200   63     330/  8/  9 1019.6R
MENOMINEE LKSHOR 1200   58     300/  5/  7 1019.0R
$$




USA.gov is the U.S. government's official web portal to all federal, state and local government web resources and services.